Location: 81360 Arifat, France
(43.7204°N, 2.3408°E)
Time: 02:00:48
(UTC+02:00)

X-37B - Pass Details

Date: 01 October 2021
Orbit: 385 x 389 km, 45.0° (Epoch: 17 October)

Event Time Altitude Azimuth Distance (km) Brightness Sun altitude
Exits shadow 06:16:04 58° 280° (W) 456 0.5 -17.4°
Maximum altitude 06:16:37 88° 197° (SSW) 391 0.5 -17.3°
Drops below altitude 10° 06:19:48 10° 105° (ESE) 1,410 4.4 -16.7°
Sets 06:21:52 0° 105° (ESE) 2,264 5.6 -16.4°
